Ionia, MI

9:42 AM EDT on October 17, 2017 (GMT -0400)
Ionia

Weather History for KY70 - December, 2012

Change the Weather History Date:

Tuesday, December 18, 2012

  Actual Average (KGRR) Record (KGRR)
Temperature  
Mean Temperature 34 °F -  
Max Temperature 39 °F 32 °F 55 °F (1939)
Min Temperature 28 °F 19 °F -5 °F (1926)
Degree Days  
Heating Degree Days 32    
Moisture  
Dew Point 30 °F    
Average Humidity 85    
Maximum Humidity 96    
Minimum Humidity 63    
Precipitation  
Precipitation 0.00 in - - ()
Sea Level Pressure  
Sea Level Pressure 29.71 in    
Wind  
Wind Speed 5 mph (WSW)    
Max Wind Speed 8 mph    
Max Gust Speed -    
Visibility 7 miles    
Events Rain , Snow    
Averages and records for this station are not official NWS values.
T = Trace of Precipitation, MM = Missing Value Source: NWS Daily Summary

Daily Weather History Graph

Daily Weather History Graph

Search for Another Location

Airport or City:

Trip Planner

Search our weather history database for the weather conditions in past years. The results will help you decide how hot, cold, wet, or windy it might be!

Date:

Astronomy

Dec. 18, 2012 Rise Set
Actual Time 8:06 AM EST 5:07 PM EST
Civil Twilight 7:34 AM EST 5:40 PM EST
Nautical Twilight 6:58 AM EST 6:15 PM EST
Astronomical Twilight 6:23 AM EST 6:50 PM EST
Moon 11:38 AM EST (12/18) 11:41 PM EST (12/18)
Length of Visible Light 10h 05m
Length of Day
9h 00m
Waxing Crescent, 34% of the Moon is Illuminated
Dec 18
Waxing Crescent
Dec 20
First Quarter
Dec 28
Full
Jan 4
Last Quarter
Jan 11
New

Hourly Weather History & Observations

Time (EST) Temp. Windchill Dew Point Humidity Pressure Visibility Wind Dir Wind Speed Gust Speed Precip Events Conditions
12:14 AM 32.9 °F 28.5 °F 31.5 °F 94% 29.66 in 7.0 mi WNW 4.6 mph - N/A   Mostly Cloudy
12:34 AM 32.5 °F 27.1 °F 31.1 °F 94% 29.66 in 5.0 mi WNW 5.8 mph - N/A   Mostly Cloudy
12:54 AM 32.2 °F 27.7 °F 30.9 °F 95% 29.66 in 5.0 mi WNW 4.6 mph - N/A   Scattered Clouds
1:14 AM 32.0 °F 27.5 °F 30.9 °F 96% 29.66 in 5.0 mi WNW 4.6 mph - N/A   Clear
1:34 AM 32.0 °F 25.6 °F 30.7 °F 95% 29.66 in 5.0 mi West 6.9 mph - N/A   Scattered Clouds
1:54 AM 32.0 °F 25.6 °F 30.7 °F 95% 29.67 in 5.0 mi West 6.9 mph - N/A   Mostly Cloudy
2:14 AM 32.0 °F 26.4 °F 30.6 °F 94% 29.67 in 5.0 mi West 5.8 mph - N/A   Overcast
2:34 AM 32.0 °F 24.8 °F 30.2 °F 93% 29.67 in 5.0 mi WNW 8.1 mph - N/A   Overcast
2:54 AM 32.0 °F 25.6 °F 30.0 °F 92% 29.68 in 7.0 mi WNW 6.9 mph - N/A   Overcast
3:14 AM 32.0 °F 26.4 °F 29.5 °F 90% 29.68 in 7.0 mi WNW 5.8 mph - N/A   Overcast
3:34 AM 32.0 °F 26.4 °F 29.3 °F 90% 29.68 in 7.0 mi WNW 5.8 mph - N/A   Overcast
3:54 AM 32.0 °F 26.4 °F 29.1 °F 89% 29.68 in 7.0 mi WNW 5.8 mph - N/A   Overcast
4:14 AM 32.0 °F 26.4 °F 29.1 °F 89% 29.68 in 10.0 mi WNW 5.8 mph - N/A   Overcast
4:34 AM 32.0 °F 26.4 °F 28.8 °F 88% 29.68 in 7.0 mi WNW 5.8 mph - N/A   Overcast
4:54 AM 31.6 °F 26.0 °F 28.4 °F 88% 29.68 in 10.0 mi West 5.8 mph - N/A   Mostly Cloudy
5:14 AM 31.1 °F 26.4 °F 28.4 °F 90% 29.69 in 7.0 mi West 4.6 mph - N/A   Mostly Cloudy
5:34 AM 31.1 °F 25.4 °F 28.4 °F 90% 29.69 in 10.0 mi West 5.8 mph - N/A   Overcast
5:54 AM 31.5 °F 24.9 °F 28.4 °F 88% 29.70 in 7.0 mi West 6.9 mph - N/A   Overcast
6:14 AM 31.5 °F 25.8 °F 28.0 °F 87% 29.70 in 7.0 mi West 5.8 mph - N/A   Overcast
6:34 AM 30.9 °F 26.2 °F 27.5 °F 87% 29.71 in 7.0 mi West 4.6 mph - N/A   Overcast
6:54 AM 30.2 °F 24.3 °F 27.3 °F 89% 29.71 in 7.0 mi West 5.8 mph - N/A   Mostly Cloudy
7:14 AM 29.8 °F 24.9 °F 27.1 °F 90% 29.72 in 10.0 mi West 4.6 mph - N/A   Scattered Clouds
7:34 AM 29.8 °F 26.3 °F 26.8 °F 88% 29.72 in 7.0 mi WNW 3.5 mph - N/A   Mostly Cloudy
7:54 AM 28.4 °F 23.3 °F 26.1 °F 91% 29.73 in 7.0 mi West 4.6 mph - N/A   Scattered Clouds
8:14 AM 28.0 °F 22.8 °F 25.9 °F 92% 29.73 in 4.0 mi West 4.6 mph - N/A   Clear
8:34 AM 28.8 °F 25.0 °F 26.8 °F 92% 29.73 in 5.0 mi West 3.5 mph - N/A   Clear
8:54 AM 30.2 °F 26.7 °F 27.1 °F 88% 29.74 in 5.0 mi WSW 3.5 mph - N/A   Scattered Clouds
9:14 AM 30.9 °F 25.2 °F 27.5 °F 87% 29.75 in 4.0 mi WSW 5.8 mph - N/A   Overcast
9:34 AM 31.8 °F 27.3 °F 28.4 °F 87% 29.76 in 5.0 mi WSW 4.6 mph - N/A   Overcast
9:54 AM 32.0 °F 28.7 °F 28.4 °F 87% 29.76 in 7.0 mi West 3.5 mph - N/A   Overcast
10:14 AM 32.4 °F 27.9 °F 28.2 °F 85% 29.77 in 7.0 mi WSW 4.6 mph - N/A   Overcast
10:34 AM 33.8 °F 28.6 °F 29.1 °F 83% 29.77 in 7.0 mi WSW 5.8 mph - N/A   Overcast
10:54 AM 34.7 °F 30.6 °F 28.9 °F 79% 29.77 in 7.0 mi West 4.6 mph - N/A   Overcast
11:14 AM 35.4 °F 31.5 °F 28.2 °F 75% 29.76 in 10.0 mi West 4.6 mph - N/A   Overcast
11:34 AM 36.7 °F 32.9 °F 28.2 °F 71% 29.76 in 10.0 mi WNW 4.6 mph - N/A   Overcast
11:54 AM 36.3 °F 32.5 °F 28.6 °F 74% 29.75 in 7.0 mi WSW 4.6 mph - N/A   Overcast
12:14 PM 36.9 °F 31.4 °F 28.9 °F 73% 29.75 in 10.0 mi SW 6.9 mph - N/A   Overcast
12:34 PM 37.6 °F 34.0 °F 28.9 °F 71% 29.74 in 10.0 mi WSW 4.6 mph - N/A   Mostly Cloudy
12:54 PM 38.3 °F 33.9 °F 28.2 °F 67% 29.73 in 10.0 mi SW 5.8 mph - N/A   Scattered Clouds
1:14 PM 38.5 °F 33.4 °F 27.9 °F 66% 29.72 in 10.0 mi South 6.9 mph - N/A   Clear
1:34 PM 39.2 °F 35.0 °F 27.5 °F 63% 29.71 in 10.0 mi SSW 5.8 mph - N/A   Clear
1:54 PM 39.4 °F 33.8 °F 28.4 °F 65% 29.71 in 10.0 mi SSW 8.1 mph - N/A   Scattered Clouds
2:14 PM 39.0 °F 35.7 °F 28.6 °F 66% 29.70 in 10.0 mi SW 4.6 mph - N/A   Scattered Clouds
2:34 PM 38.7 °F 33.6 °F 28.4 °F 67% 29.70 in 10.0 mi SSW 6.9 mph - N/A   Clear
2:54 PM 39.2 °F 34.2 °F 28.2 °F 65% 29.70 in 10.0 mi SSW 6.9 mph - N/A   Clear
3:14 PM 38.7 °F 34.3 °F 28.2 °F 66% 29.69 in 10.0 mi South 5.8 mph - N/A   Clear
3:34 PM 38.3 °F 33.2 °F 28.2 °F 67% 29.69 in 10.0 mi SW 6.9 mph - N/A   Clear
3:54 PM 38.5 °F 32.7 °F 28.8 °F 68% 29.70 in 10.0 mi SSW 8.1 mph - N/A   Mostly Cloudy
4:14 PM 38.3 °F 32.5 °F 28.4 °F 68% 29.70 in 10.0 mi South 8.1 mph - N/A   Mostly Cloudy
4:34 PM 37.6 °F 33.1 °F 28.9 °F 71% 29.69 in 10.0 mi South 5.8 mph - N/A   Overcast
4:54 PM 37.4 °F 32.8 °F 30.6 °F 76% 29.68 in 10.0 mi South 5.8 mph - N/A   Overcast
5:14 PM 36.9 °F 32.2 °F 29.7 °F 75% 29.67 in 10.0 mi SE 5.8 mph - N/A   Overcast
5:34 PM 36.5 °F 32.7 °F 29.8 °F 77% 29.68 in 10.0 mi SE 4.6 mph - N/A   Overcast
5:54 PM 36.5 °F 32.7 °F 30.4 °F 78% 29.68 in 10.0 mi ESE 4.6 mph - N/A   Overcast
6:14 PM 36.0 °F 31.1 °F 30.2 °F 80% 29.68 in 10.0 mi ESE 5.8 mph - N/A Rain Light Rain
6:34 PM 36.0 °F 31.1 °F 30.7 °F 81% 29.68 in 10.0 mi ESE 5.8 mph - N/A Snow Light Snow
6:54 PM 35.6 °F 32.8 °F 31.1 °F 84% 29.69 in 10.0 mi ESE 3.5 mph - N/A   Overcast
7:14 PM 35.2 °F - 31.3 °F 85% 29.70 in 7.0 mi Calm Calm - N/A Snow Light Snow
7:34 PM 33.8 °F 28.6 °F 32.0 °F 93% 29.70 in 5.0 mi ENE 5.8 mph - N/A Snow Light Snow
7:54 PM 33.8 °F - 32.0 °F 93% 29.72 in 7.0 mi Calm Calm - N/A   Overcast
8:14 PM 33.8 °F 30.8 °F 32.4 °F 94% 29.72 in 5.0 mi ENE 3.5 mph - N/A   Overcast
8:34 PM 33.3 °F 27.9 °F 32.2 °F 96% 29.71 in 4.0 mi ENE 5.8 mph - N/A   Overcast
8:54 PM 33.3 °F 27.1 °F 32.4 °F 96% 29.71 in 3.0 mi ENE 6.9 mph - N/A   Overcast
9:14 PM 33.4 °F 28.1 °F 32.5 °F 96% 29.70 in 3.0 mi ENE 5.8 mph - N/A   Overcast
9:34 PM 33.4 °F 27.3 °F 32.5 °F 96% 29.70 in 3.0 mi East 6.9 mph - N/A   Overcast
9:54 PM 33.8 °F 29.6 °F 32.9 °F 96% 29.70 in 3.0 mi East 4.6 mph - N/A   Overcast
10:14 PM 33.8 °F 29.6 °F 32.9 °F 96% 29.70 in 3.0 mi ENE 4.6 mph - N/A   Overcast
10:34 PM 33.8 °F 27.7 °F 32.9 °F 96% 29.70 in 2.5 mi ENE 6.9 mph - N/A   Overcast
10:54 PM 33.8 °F 29.6 °F 32.9 °F 96% 29.71 in 2.5 mi ENE 4.6 mph - N/A Snow Light Snow
11:14 PM 33.8 °F 28.6 °F 32.9 °F 96% 29.71 in 2.0 mi ENE 5.8 mph - N/A Snow Light Snow
11:34 PM 33.8 °F 29.6 °F 32.9 °F 96% 29.72 in 2.0 mi ENE 4.6 mph - N/A   Overcast
11:54 PM 33.8 °F 28.6 °F 32.9 °F 96% 29.72 in 1.8 mi ENE 5.8 mph - N/A   Overcast